[[{"header":{"parameterUnit":"m.s-1","parameterCategory":1,"la1":30.2991,"la2":30.254,"lo1":-89.0895,"lo2":-89.0444,"dy":0.0017,"dx":0.0017,"nx":28,"ny":28,"refTime":"2024-12-15T03:00:00:Z","depth":0,"parameterNumber":2,"parameterNumberName":"U-component_of_WINDS"},"data":[0,0,0,0,0,0,0,0,0,0,0,0,0,0,0,0,0,0,0,0,0,0,0,0,0,0,0,0,0,0,0,0,0,0,0,0,0,0,0,0,0,0,0,0,0,0,0,0,0,0,0,0,0,0,0,0,0,0,-1.7216,-1.7216,0,-1.7134,-1.7133,-1.7133,-1.7054,-1.7053,-1.7052,-1.7051,-1.6971,-1.697,-1.6968,0,0,0,0,0,0,0,0,0,0,0,0,0,-1.7309,-1.7308,-1.7217,-1.7216,-1.7214,-1.7135,-1.7133,-1.7132,-1.7054,-1.7053,-1.7052,-1.7051,-1.6971,-1.697,-1.6968,0,0,0,0,0,0,0,0,0,0,0,0,0,-1.7252,-1.7307,-1.7217,-1.7166,-1.716,-1.7135,-1.7133,-1.7132,-1.7055,-1.7053,-1.7052,-1.705,-1.6972,-1.697,-1.6968,-1.6987,0,0,-1.6963,-1.6962,0,0,0,0,0,0,0,0,-1.7256,-1.7249,-1.7174,-1.7169,-1.7163,-1.7103,-1.7136,-1.7084,-1.7055,-1.7095,-1.7051,-1.7049,-1.7016,-1.7011,-1.6999,-1.6983,-1.698,-1.6963,-1.6961,-1.6961,-1.696,0,0,0,0,0,0,0,-1.726,-1.7252,-1.7184,-1.7173,-1.7167,-1.7148,-1.7138,-1.7126,-1.7065,-1.7091,-1.7085,-1.7077,-1.7013,-1.7001,-1.6996,-1.6979,-1.6963,-1.6961,-1.696,-1.6959,-1.6975,-1.6977,0,0,0,0,0,0,-1.7271,-1.7256,-1.7187,-1.7182,-1.7207,-1.7148,-1.7137,-1.7124,-1.7065,-1.7055,-1.7078,-1.7073,-1.7004,-1.6998,-1.6993,-1.7011,-1.6961,-1.6959,-1.6958,-1.6974,-1.6975,-1.6977,0,0,0,0,0,0,-1.7273,-1.7265,-1.719,-1.7217,-1.7206,-1.7148,-1.7134,-1.7123,-1.711,-1.7055,-1.7044,-1.7076,-1.7003,-1.6996,-1.6989,-1.7007,-1.6958,-1.6957,-1.6972,-1.6974,-1.6976,-1.7047,0,0,0,0,0,0,-1.7276,-1.7267,-1.7273,-1.7218,-1.7205,-1.7186,-1.7135,-1.7123,-1.7107,-1.71,-1.705,-1.7041,-1.7001,-1.6992,-1.6987,-1.7004,-1.6955,-1.697,-1.6973,-1.6976,-1.7043,-1.7052,-1.7059,0,0,0,0,0,-1.728,-1.7297,-1.7273,-1.7265,-1.7211,-1.7188,-1.718,-1.7133,-1.7109,-1.7115,-1.7079,-1.7042,-1.7006,-1.6992,-1.6986,-1.7002,-1.6969,-1.6972,-1.6975,-1.704,-1.705,-1.7059,0,0,0,0,0,0,-1.7356,-1.7289,-1.7262,-1.7261,-1.7231,-1.7174,-1.718,-1.7146,-1.7123,-1.7117,-1.7061,-1.7051,-1.705,-1.7026,-1.7011,-1.7018,-1.6982,-1.6985,-1.7033,-1.7043,-1.7051,-1.7056,-1.6954,0,0,0,0,0,-1.7373,-1.7359,-1.7301,-1.7306,-1.7292,-1.7239,-1.7227,-1.7194,-1.716,-1.7147,-1.7111,-1.7081,-1.7062,-1.7051,-1.7032,-1.704,-1.7028,-1.7048,-1.7056,-1.7063,-1.7065,-1.7068,-1.7076,-1.6988,-1.6988,-1.6988,0,0,-1.7408,-1.7369,-1.7363,-1.732,-1.7293,-1.728,-1.7229,-1.7217,-1.7208,-1.7146,-1.7136,-1.7109,-1.7072,-1.7073,-1.7071,-1.7052,-1.7087,-1.7067,-1.7073,-1.7072,-1.7072,-1.708,-1.7088,-1.6991,-1.699,-1.699,0,0,-1.7464,-1.7433,-1.7434,-1.7407,-1.7365,-1.733,-1.733,-1.7279,-1.7258,-1.7248,-1.7201,-1.7189,-1.7159,-1.7134,-1.7118,-1.7165,-1.713,-1.716,-1.7202,-1.7205,-1.7212,-1.7218,-1.7234,-1.7241,-1.7163,-1.7163,-1.7164,0,-1.7512,-1.749,-1.7439,-1.743,-1.7413,-1.7355,-1.7356,-1.7332,-1.7287,-1.7277,-1.7256,-1.7217,-1.7188,-1.7182,-1.7193,-1.7182,-1.7181,-1.7165,-1.7215,-1.722,-1.7225,-1.724,-1.7246,-1.7167,-1.7167,-1.7166,-1.7166,0,-1.7551,-1.7537,-1.7543,-1.7498,-1.7482,-1.7478,-1.7428,-1.7417,-1.7386,-1.7353,-1.7344,-1.7307,-1.7278,-1.7275,-1.7244,-1.7265,-1.7254,-1.7225,-1.7188,-1.7238,-1.7251,-1.7257,-1.7173,-1.7171,-1.717,-1.7169,0,0,-1.7653,-1.758,-1.7583,-1.7562,-1.7512,-1.7501,-1.7495,-1.7466,-1.7458,-1.7429,-1.7423,-1.7399,-1.7371,-1.7353,-1.7319,-1.7322,-1.7361,-1.7292,-1.7291,-1.7306,-1.7381,-1.7403,-1.741,-1.7339,-1.7339,-1.734,-1.7384,0,-1.77,-1.7684,-1.7638,-1.7637,-1.7623,-1.7568,-1.7563,-1.7532,-1.7502,-1.7487,-1.7454,-1.7437,-1.7402,-1.7391,-1.7391,-1.7357,-1.7376,-1.7353,-1.7333,-1.7333,-1.7343,-1.7417,-1.744,-1.7483,-1.7389,-1.739,-1.739,0,-1.7752,-1.7725,-1.7722,-1.7672,-1.7665,-1.7661,-1.763,-1.7616,-1.7581,-1.7559,-1.7538,-1.7501,-1.7492,-1.7459,-1.7447,-1.7433,-1.7422,-1.7404,-1.7405,-1.74,-1.7364,-1.7414,-1.7495,-1.7502,-1.7398,-1.7398,-1.7397,0,-1.7826,-1.7789,-1.7782,-1.7766,-1.7708,-1.7707,-1.7683,-1.7646,-1.7631,-1.7605,-1.7595,-1.757,-1.7556,-1.7537,-1.7494,-1.7474,-1.7487,-1.745,-1.7469,-1.747,-1.7473,-1.7473,-1.7553,-1.7468,-1.7468,-1.7468,-1.7468,0,-1.7883,-1.7883,-1.7814,-1.781,-1.7809,-1.7757,-1.7757,-1.7728,-1.7696,-1.7686,-1.7638,-1.763,-1.7574,-1.756,-1.7527,-1.7522,-1.7516,-1.7498,-1.7489,-1.7502,-1.7504,-1.7494,-1.7489,-1.747,-1.7469,-1.7469,-1.7469,0,-1.7964,-1.7918,-1.7907,-1.7853,-1.7839,-1.7841,-1.7795,-1.7789,-1.7756,-1.7744,-1.7738,-1.7687,-1.7667,-1.7623,-1.7592,-1.757,-1.7574,-1.7558,-1.7585,-1.7579,-1.76,-1.7598,-1.7675,-1.7682,-1.7594,-1.7595,-1.7596,0,-1.8003,-1.8001,-1.7947,-1.7936,-1.7913,-1.7897,-1.7881,-1.7831,-1.7817,-1.7776,-1.7776,-1.7753,-1.7731,-1.7704,-1.7664,-1.7641,-1.7623,-1.7652,-1.762,-1.7632,-1.7623,-1.7623,-1.7623,-1.7659,-1.766,-1.7661,-1.7662,0,-1.8077,-1.8054,-1.8033,-1.8004,-1.7986,-1.7961,-1.7934,-1.7928,-1.7871,-1.7858,-1.7837,-1.7821,-1.7789,-1.7767,-1.7737,-1.7714,-1.7679,-1.7673,-1.7675,-1.7688,-1.7704,-1.7695,-1.7604,-1.7671,-1.767,-1.7669,-1.7669,-1.7668,-1.8137,-1.8133,-1.8094,-1.8072,-1.8046,-1.8021,-1.8013,-1.7979,-1.796,-1.7929,-1.7901,-1.7883,-1.7848,-1.7804,-1.7783,-1.7769,-1.7751,-1.7756,-1.7757,-1.7758,-1.7764,-1.7707,-1.7764,-1.7763,-1.7763,-1.7763,-1.7763,0,-1.8208,-1.818,-1.816,-1.8123,-1.8106,-1.8073,-1.8041,-1.8029,-1.8014,-1.7983,-1.7963,-1.7939,-1.7918,-1.7877,-1.7851,-1.7848,-1.7831,-1.7843,-1.7843,-1.7838,-1.7781,-1.7781,-1.7857,-1.7857,-1.7857,-1.7857,-1.7857,-1.7857,-1.8243,-1.8234,-1.8207,-1.8185,-1.8157,-1.8138,-1.8122,-1.81,-1.8075,-1.805,-1.8031,-1.8004,-1.797,-1.7942,-1.7921,-1.7909,-1.7902,-1.7919,-1.7903,-1.7851,-1.7842,-1.7833,-1.7832,-1.7918,-1.7918,-1.796,-1.796,-1.7961]},{"header":{"parameterUnit":"m.s-1","parameterCategory":1,"la1":30.2991,"la2":30.254,"lo1":-89.0895,"lo2":-89.0444,"dy":0.0017,"dx":0.0017,"nx":28,"ny":28,"refTime":"2024-12-15T03:00:00:Z","depth":0,"parameterNumber":3,"parameterNumberName":"V-component_of_WINDS"},"data":[0,0,0,0,0,0,0,0,0,0,0,0,0,0,0,0,0,0,0,0,0,0,0,0,0,0,0,0,0,0,0,0,0,0,0,0,0,0,0,0,0,0,0,0,0,0,0,0,0,0,0,0,0,0,0,0,0,0,-0.321,-0.3211,0,-0.3264,-0.3265,-0.3265,-0.3267,-0.3267,-0.3266,-0.3265,-0.3319,-0.3321,-0.3323,0,0,0,0,0,0,0,0,0,0,0,0,0,-0.3107,-0.3109,-0.321,-0.3211,-0.3212,-0.3264,-0.3265,-0.3265,-0.3267,-0.3267,-0.3266,-0.3265,-0.3319,-0.3321,-0.3323,0,0,0,0,0,0,0,0,0,0,0,0,0,-0.3156,-0.311,-0.321,-0.3219,-0.322,-0.3264,-0.3265,-0.3266,-0.3268,-0.3267,-0.3266,-0.3265,-0.3318,-0.3321,-0.3324,-0.3362,0,0,-0.3333,-0.3334,0,0,0,0,0,0,0,0,-0.3153,-0.3159,-0.3217,-0.3219,-0.322,-0.3258,-0.3248,-0.3298,-0.3268,-0.325,-0.3265,-0.3264,-0.33,-0.3304,-0.3316,-0.3364,-0.3367,-0.3333,-0.3335,-0.3336,-0.3337,0,0,0,0,0,0,0,-0.315,-0.3157,-0.3232,-0.3218,-0.322,-0.3219,-0.3225,-0.3258,-0.3279,-0.3251,-0.3251,-0.3258,-0.33,-0.3313,-0.3317,-0.3367,-0.3333,-0.3336,-0.3338,-0.3339,-0.3447,-0.3448,0,0,0,0,0,0,-0.3145,-0.3154,-0.323,-0.3233,-0.3183,-0.3222,-0.3229,-0.3247,-0.3279,-0.3283,-0.3258,-0.3258,-0.3308,-0.3314,-0.3319,-0.3364,-0.3336,-0.3339,-0.3341,-0.3446,-0.3447,-0.3448,0,0,0,0,0,0,-0.3143,-0.3151,-0.3228,-0.3194,-0.3204,-0.3225,-0.3245,-0.3248,-0.3261,-0.3285,-0.3288,-0.3268,-0.3308,-0.3315,-0.3351,-0.3366,-0.3341,-0.3343,-0.3445,-0.3446,-0.3448,-0.3456,0,0,0,0,0,0,-0.314,-0.3151,-0.3166,-0.3194,-0.3205,-0.3259,-0.3246,-0.325,-0.3267,-0.3266,-0.3294,-0.3298,-0.3308,-0.3346,-0.3354,-0.337,-0.3346,-0.3443,-0.3445,-0.3447,-0.3454,-0.3457,-0.346,0,0,0,0,0,-0.3136,-0.3166,-0.3167,-0.3176,-0.3225,-0.326,-0.3266,-0.3277,-0.3268,-0.3283,-0.3298,-0.3297,-0.3364,-0.335,-0.3358,-0.3376,-0.3442,-0.3445,-0.3447,-0.3453,-0.3457,-0.346,0,0,0,0,0,0,-0.314,-0.317,-0.3171,-0.3212,-0.3233,-0.326,-0.328,-0.3281,-0.3305,-0.3304,-0.3316,-0.3322,-0.3357,-0.337,-0.3354,-0.3413,-0.3402,-0.3406,-0.3403,-0.3407,-0.341,-0.3406,-0.3348,0,0,0,0,0,-0.3145,-0.3172,-0.3197,-0.323,-0.3241,-0.3258,-0.3274,-0.328,-0.3303,-0.3312,-0.3329,-0.335,-0.3376,-0.3392,-0.3417,-0.3456,-0.3461,-0.3472,-0.3475,-0.3478,-0.3481,-0.35,-0.3505,-0.3456,-0.3456,-0.3456,0,0,-0.3157,-0.3177,-0.3193,-0.3231,-0.3249,-0.3275,-0.3266,-0.3294,-0.3313,-0.3316,-0.335,-0.3364,-0.3388,-0.3425,-0.3442,-0.3437,-0.3495,-0.3481,-0.3482,-0.3484,-0.3503,-0.3508,-0.3512,-0.3458,-0.3457,-0.3457,0,0,-0.3192,-0.321,-0.3239,-0.3256,-0.3282,-0.3294,-0.33,-0.3327,-0.3336,-0.337,-0.3372,-0.3395,-0.3439,-0.3456,-0.347,-0.3509,-0.3508,-0.3516,-0.3532,-0.355,-0.3554,-0.3558,-0.357,-0.3574,-0.352,-0.352,-0.352,0,-0.3203,-0.3243,-0.3254,-0.3281,-0.3297,-0.3301,-0.3329,-0.3345,-0.3378,-0.3389,-0.3383,-0.3437,-0.3454,-0.3494,-0.3503,-0.3515,-0.3522,-0.3513,-0.3553,-0.3556,-0.356,-0.3571,-0.3576,-0.352,-0.352,-0.352,-0.352,0,-0.3254,-0.3282,-0.3302,-0.3333,-0.3351,-0.3379,-0.3393,-0.3411,-0.3415,-0.3426,-0.346,-0.348,-0.3508,-0.3519,-0.3523,-0.3559,-0.3554,-0.3551,-0.3539,-0.3565,-0.3576,-0.3581,-0.3521,-0.3521,-0.3521,-0.3521,0,0,-0.3293,-0.3329,-0.3336,-0.3349,-0.3377,-0.3398,-0.3426,-0.3453,-0.3467,-0.3489,-0.3511,-0.3548,-0.3544,-0.356,-0.3566,-0.3583,-0.361,-0.3577,-0.3578,-0.3581,-0.3648,-0.365,-0.3655,-0.361,-0.3611,-0.3612,-0.3645,0,-0.3329,-0.3379,-0.3388,-0.3431,-0.3455,-0.3458,-0.3481,-0.35,-0.3511,-0.3533,-0.3545,-0.357,-0.3564,-0.3573,-0.359,-0.3603,-0.3623,-0.3601,-0.363,-0.3631,-0.3622,-0.3661,-0.3663,-0.3694,-0.365,-0.3651,-0.3651,0,-0.3379,-0.3401,-0.3446,-0.3469,-0.3479,-0.3501,-0.3525,-0.3546,-0.3568,-0.3574,-0.3591,-0.3596,-0.3623,-0.3611,-0.3647,-0.3632,-0.3644,-0.3652,-0.3654,-0.3656,-0.3642,-0.3663,-0.3704,-0.3708,-0.3658,-0.3658,-0.3657,0,-0.34,-0.3442,-0.3473,-0.3485,-0.3513,-0.3528,-0.354,-0.356,-0.3576,-0.3597,-0.3607,-0.3631,-0.3644,-0.3663,-0.3673,-0.3663,-0.3708,-0.3697,-0.3713,-0.3713,-0.3722,-0.3721,-0.3764,-0.3732,-0.3732,-0.3731,-0.3731,0,-0.3439,-0.3466,-0.3483,-0.3502,-0.3532,-0.3542,-0.3571,-0.3583,-0.3601,-0.3621,-0.3626,-0.3645,-0.3658,-0.3678,-0.3687,-0.3715,-0.3721,-0.3726,-0.3728,-0.3725,-0.3724,-0.3732,-0.373,-0.3733,-0.3732,-0.3732,-0.3732,0,-0.3468,-0.3481,-0.3515,-0.3539,-0.3545,-0.3566,-0.3585,-0.3604,-0.3614,-0.364,-0.3647,-0.3663,-0.3688,-0.37,-0.3731,-0.3736,-0.3767,-0.3768,-0.376,-0.376,-0.3775,-0.3773,-0.3824,-0.383,-0.3795,-0.3795,-0.3795,0,-0.3491,-0.3512,-0.3537,-0.3551,-0.3564,-0.3587,-0.3602,-0.3613,-0.3628,-0.3653,-0.3668,-0.3692,-0.3712,-0.3751,-0.3765,-0.3788,-0.3789,-0.3805,-0.3792,-0.3788,-0.3787,-0.3785,-0.3786,-0.3807,-0.3807,-0.3808,-0.3808,0,-0.353,-0.3535,-0.3557,-0.3581,-0.3599,-0.3618,-0.3637,-0.3648,-0.3662,-0.3679,-0.3704,-0.3719,-0.375,-0.3774,-0.3797,-0.3809,-0.381,-0.3812,-0.3816,-0.3813,-0.3807,-0.3809,-0.3764,-0.381,-0.381,-0.381,-0.381,-0.381,-0.3556,-0.3574,-0.3594,-0.3618,-0.3633,-0.365,-0.3668,-0.368,-0.3701,-0.3727,-0.3732,-0.3758,-0.3777,-0.3808,-0.3821,-0.384,-0.3837,-0.3844,-0.3845,-0.3847,-0.3846,-0.3805,-0.3845,-0.3845,-0.3845,-0.3845,-0.3845,0,-0.3594,-0.3607,-0.3629,-0.3655,-0.3673,-0.3673,-0.3693,-0.3708,-0.3731,-0.3749,-0.3768,-0.3796,-0.3818,-0.3834,-0.3857,-0.3869,-0.387,-0.3875,-0.3873,-0.3876,-0.3849,-0.3842,-0.3873,-0.3873,-0.3873,-0.3873,-0.3873,-0.3873,-0.3616,-0.3645,-0.3652,-0.3688,-0.3701,-0.3726,-0.3738,-0.3753,-0.3767,-0.3798,-0.3816,-0.3826,-0.3843,-0.3866,-0.3887,-0.389,-0.3898,-0.3902,-0.3906,-0.3881,-0.3878,-0.3875,-0.3868,-0.3904,-0.3904,-0.393,-0.393,-0.3931]}]]